Ogden, UT

5:00 AM MDT on July 22, 2017 (GMT -0600)
Ogden-Hinckley

Weather History for KOGD - September, 2014

Change the Weather History Date:

Wednesday, September 17, 2014

  Actual Average Record
Temperature  
Mean Temperature 78 °F -  
Max Temperature 91 °F 79 °F 92 °F (1937)
Min Temperature 64 °F 48 °F 34 °F (1965)
Cooling Degree Days 12    
Growing Degree Days 28 (Base 50)    
Moisture  
Dew Point 42 °F    
Average Humidity 31    
Maximum Humidity 46    
Minimum Humidity 17    
Precipitation  
Precipitation 0.00 in - - ()
Sea Level Pressure  
Sea Level Pressure 29.76 in    
Wind  
Wind Speed 8 mph (South)    
Max Wind Speed 14 mph    
Max Gust Speed -    
Visibility 10 miles    
Events      
Averages and records for this station are not official NWS values.
T = Trace of Precipitation, MM = Missing Value Source: NWS Daily Summary

Daily Weather History Graph

Daily Weather History Graph

Search for Another Location

Airport or City:

Trip Planner

Search our weather history database for the weather conditions in past years. The results will help you decide how hot, cold, wet, or windy it might be!

Date:

Astronomy

Sep. 17, 2014 Rise Set
Actual Time 7:10 AM MDT 7:33 PM MDT
Civil Twilight 6:42 AM MDT 8:01 PM MDT
Nautical Twilight 6:10 AM MDT 8:33 PM MDT
Astronomical Twilight 5:37 AM MDT 9:06 PM MDT
Moon 1:11 AM MDT (9/17) 3:48 PM MDT (9/17)
Length of Visible Light 13h 18m
Length of Day
12h 23m
Waning Crescent, 34% of the Moon is Illuminated
Sep 17
Waning Crescent
Sep 24
New
Oct 1
First Quarter
Oct 8
Full
Oct 15
Last Quarter

Hourly Weather History & Observations

Time (MDT) Temp. Dew Point Humidity Pressure Visibility Wind Dir Wind Speed Gust Speed Precip Events Conditions
12:53 AM 70.0 °F 43.0 °F 38% 29.79 in 10.0 mi South 9.2 mph - N/A   Clear
1:53 AM 69.1 °F 42.1 °F 38% 29.78 in 10.0 mi South 9.2 mph - N/A   Clear
2:53 AM 68.0 °F 42.1 °F 39% 29.78 in 10.0 mi South 10.4 mph - N/A   Clear
3:53 AM 68.0 °F 41.0 °F 37% 29.76 in 10.0 mi South 10.4 mph - N/A   Clear
4:53 AM 66.9 °F 41.0 °F 39% 29.77 in 10.0 mi South 9.2 mph - N/A   Clear
5:53 AM 64.0 °F 43.0 °F 46% 29.78 in 10.0 mi South 5.8 mph - N/A   Clear
6:53 AM 64.0 °F 42.1 °F 45% 29.78 in 10.0 mi South 9.2 mph - N/A   Clear
7:53 AM 64.9 °F 42.1 °F 43% 29.81 in 10.0 mi South 10.4 mph - N/A   Clear
8:53 AM 69.1 °F 44.1 °F 40% 29.83 in 10.0 mi South 8.1 mph - N/A   Clear
9:53 AM 73.0 °F 45.0 °F 37% 29.84 in 10.0 mi SSE 3.5 mph - N/A   Clear
10:53 AM 81.0 °F 42.1 °F 25% 29.83 in 10.0 mi Calm Calm - N/A   Clear
12:53 PM 88.0 °F 42.1 °F 20% 29.79 in 10.0 mi SSW 6.9 mph - N/A   Clear
1:53 PM 89.1 °F 41.0 °F 19% 29.78 in 10.0 mi SW 6.9 mph - N/A   Clear
2:53 PM 91.0 °F 43.0 °F 19% 29.75 in 10.0 mi West 9.2 mph - N/A   Clear
3:53 PM 90.0 °F 41.0 °F 18% 29.73 in 10.0 mi Variable 4.6 mph - N/A   Clear
4:53 PM 91.0 °F 41.0 °F 17% 29.71 in 10.0 mi WNW 5.8 mph - N/A   Clear
5:53 PM 90.0 °F 41.0 °F 18% 29.70 in 10.0 mi Variable 3.5 mph - N/A   Clear
6:53 PM 89.1 °F 41.0 °F 19% 29.70 in 10.0 mi North 3.5 mph - N/A   Clear
7:53 PM 82.9 °F 42.1 °F 24% 29.71 in 10.0 mi NNE 4.6 mph - N/A   Clear
8:53 PM 75.9 °F 46.9 °F 36% 29.72 in 10.0 mi South 9.2 mph - N/A   Clear
9:53 PM 75.0 °F 44.1 °F 33% 29.71 in 10.0 mi SSE 6.9 mph - N/A   Clear
10:53 PM 75.0 °F 43.0 °F 32% 29.70 in 10.0 mi South 10.4 mph - N/A   Clear
11:53 PM 75.9 °F 42.1 °F 30% 29.69 in 10.0 mi SSE 13.8 mph - N/A   Clear